Weather History for PASX - April, 2014

Change the Weather History Date:

Friday, April 11, 2014

  Actual Average Record
Temperature  
Mean Temperature 26 °F -  
Max Temperature 41 °F 39 °F 55 °F (1997)
Min Temperature 12 °F 24 °F -8 °F (1985)
Degree Days  
Heating Degree Days 38    
Moisture  
Dew Point 10 °F    
Average Humidity 51    
Maximum Humidity 79    
Minimum Humidity 31    
Precipitation  
Precipitation 0.00 in - - ()
Sea Level Pressure  
Sea Level Pressure 30.21 in    
Wind  
Wind Speed 2 mph (NE)    
Max Wind Speed 10 mph    
Max Gust Speed 18 mph    
Visibility 10 miles    
Events      
Averages and records for this station are not official NWS values.
T = Trace of Precipitation, MM = Missing Value Source: NWS Daily Summary

Daily Weather History Graph

Daily Weather History Graph

Search for Another Location

Airport or City:

Trip Planner

Search our weather history database for the weather conditions in past years. The results will help you decide how hot, cold, wet, or windy it might be!

Date:

Astronomy

Apr. 11, 2014 Rise Set
Actual Time 6:57 AM AKDT 9:14 PM AKDT
Civil Twilight 6:11 AM AKDT 10:00 PM AKDT
Nautical Twilight 5:11 AM AKDT 11:01 PM AKDT
Astronomical Twilight 3:51 AM AKDT 12:24 AM AKDT
Moon 5:18 PM AKDT (4/11) 5:50 AM AKDT (4/11)
Length of Visible Light 15h 49m
Length of Day
14h 17m
Waxing Gibbous, 88% of the Moon is Illuminated
Apr 11
Waxing Gibbous
Apr 14
Full
Apr 21
Last Quarter
Apr 28
New
May 6
First Quarter

Hourly Weather History & Observations

Time (AKDT) Temp. Windchill Dew Point Humidity Pressure Visibility Wind Dir Wind Speed Gust Speed Precip Events Conditions
12:16 AM 19.4 °F - 8.6 °F 63% 30.11 in 10.0 mi Calm Calm - N/A   Clear
12:36 AM 17.6 °F - 6.8 °F 63% 30.11 in 10.0 mi Calm Calm - N/A   Clear
12:56 AM 17.6 °F - 6.8 °F 63% 30.12 in 10.0 mi Calm Calm - N/A   Clear
1:16 AM 17.6 °F - 8.6 °F 68% 30.13 in 10.0 mi Calm Calm - N/A   Clear
1:36 AM 15.8 °F - 6.8 °F 68% 30.13 in 10.0 mi Calm Calm - N/A   Clear
1:56 AM 17.6 °F - 6.8 °F 63% 30.13 in 10.0 mi Calm Calm - N/A   Clear
2:16 AM 15.8 °F 10.2 °F 5.0 °F 62% 30.13 in 10.0 mi ENE 3.5 mph - N/A   Clear
2:36 AM 14.0 °F - 3.2 °F 62% 30.14 in 10.0 mi Calm Calm - N/A   Clear
2:56 AM 15.8 °F 10.2 °F 6.8 °F 68% 30.15 in 10.0 mi East 3.5 mph - N/A   Clear
3:16 AM 14.0 °F - 5.0 °F 67% 30.15 in 10.0 mi Calm Calm - N/A   Clear
3:36 AM 14.0 °F - 6.8 °F 73% 30.16 in 10.0 mi Calm Calm - N/A   Clear
3:56 AM 12.2 °F - 5.0 °F 73% 30.16 in 10.0 mi Calm Calm - N/A   Clear
4:16 AM 12.2 °F 6.1 °F 3.2 °F 67% 30.16 in 10.0 mi ENE 3.5 mph - N/A   Clear
4:36 AM 12.2 °F 4.3 °F 6.8 °F 79% 30.16 in 10.0 mi ENE 4.6 mph - N/A   Clear
4:56 AM 12.2 °F 6.1 °F 6.8 °F 79% 30.16 in 10.0 mi East 3.5 mph - N/A   Clear
5:16 AM 14.0 °F 6.5 °F 5.0 °F 67% 30.16 in 10.0 mi East 4.6 mph - N/A   Clear
5:36 AM 12.2 °F 4.3 °F 3.2 °F 67% 30.16 in 10.0 mi East 4.6 mph - N/A   Clear
5:56 AM 12.2 °F 4.3 °F 3.2 °F 67% 30.17 in 10.0 mi East 4.6 mph - N/A   Clear
6:16 AM 12.2 °F 2.9 °F 3.2 °F 67% 30.16 in 10.0 mi East 5.8 mph - N/A   Clear
6:36 AM 12.2 °F 2.9 °F 3.2 °F 67% 30.17 in 10.0 mi East 5.8 mph - N/A   Clear
6:56 AM 12.2 °F 6.1 °F 3.2 °F 67% 30.18 in 10.0 mi East 3.5 mph - N/A   Clear
7:16 AM 12.2 °F 4.3 °F 3.2 °F 67% 30.19 in 10.0 mi East 4.6 mph - N/A   Clear
7:36 AM 12.2 °F 2.9 °F 3.2 °F 67% 30.19 in 10.0 mi East 5.8 mph - N/A   Clear
7:56 AM 12.2 °F 4.3 °F 5.0 °F 73% 30.20 in 10.0 mi East 4.6 mph - N/A   Clear
8:16 AM 14.0 °F 6.5 °F 6.8 °F 73% 30.20 in 10.0 mi East 4.6 mph - N/A   Clear
8:36 AM 15.8 °F 8.6 °F 6.8 °F 68% 30.21 in 10.0 mi East 4.6 mph - N/A   Clear
8:56 AM 17.6 °F 10.7 °F 8.6 °F 68% 30.21 in 10.0 mi East 4.6 mph - N/A   Clear
9:16 AM 19.4 °F 14.3 °F 8.6 °F 63% 30.22 in 10.0 mi East 3.5 mph - N/A   Clear
9:36 AM 21.2 °F 16.4 °F 8.6 °F 58% 30.22 in 10.0 mi East 3.5 mph - N/A   Clear
9:56 AM 24.8 °F 20.5 °F 10.4 °F 54% 30.22 in 10.0 mi East 3.5 mph - N/A   Clear
10:16 AM 28.4 °F 24.6 °F 10.4 °F 47% 30.23 in 10.0 mi East 3.5 mph - N/A   Clear
10:36 AM 30.2 °F - 10.4 °F 44% 30.24 in 10.0 mi Calm Calm - N/A   Clear
10:56 AM 32.0 °F - 10.4 °F 41% 30.24 in 10.0 mi Calm Calm - N/A   Clear
11:16 AM 33.8 °F 30.8 °F 8.6 °F 35% 30.24 in 10.0 mi NNE 3.5 mph - N/A   Clear
11:36 AM 33.8 °F 29.6 °F 10.4 °F 38% 30.24 in 10.0 mi ENE 4.6 mph - N/A   Clear
11:56 AM 35.6 °F - 10.4 °F 35% 30.24 in 10.0 mi Calm Calm - N/A   Clear
12:16 PM 35.6 °F 31.7 °F 8.6 °F 33% 30.24 in 10.0 mi NW 4.6 mph - N/A   Clear
12:36 PM 35.6 °F - 8.6 °F 33% 30.24 in 10.0 mi Calm Calm - N/A   Clear
12:56 PM 37.4 °F - 10.4 °F 33% 30.24 in 10.0 mi Calm Calm - N/A   Clear
1:16 PM 37.4 °F 34.9 °F 10.4 °F 33% 30.24 in 10.0 mi West 3.5 mph - N/A   Clear
1:36 PM 39.2 °F 37.0 °F 10.4 °F 31% 30.24 in 10.0 mi West 3.5 mph - N/A   Clear
1:56 PM 39.2 °F - 10.4 °F 31% 30.24 in 10.0 mi Calm Calm - N/A   Clear
2:16 PM 39.2 °F 35.9 °F 10.4 °F 31% 30.24 in 10.0 mi NNW 4.6 mph - N/A   Clear
2:36 PM 39.2 °F 33.0 °F 14.0 °F 36% 30.24 in 10.0 mi WNW 9.2 mph - N/A   Clear
2:56 PM 39.2 °F 33.0 °F 15.8 °F 39% 30.24 in 10.0 mi WNW 9.2 mph - N/A   Clear
3:16 PM 39.2 °F 32.5 °F 15.8 °F 39% 30.24 in 10.0 mi West 10.4 mph - N/A   Clear
3:36 PM 41.0 °F 35.2 °F 15.8 °F 36% 30.24 in 10.0 mi West 9.2 mph - N/A   Clear
3:56 PM 41.0 °F 34.7 °F 15.8 °F 36% 30.24 in 10.0 mi WNW 10.4 mph - N/A   Clear
4:16 PM 41.0 °F 35.8 °F 15.8 °F 36% 30.24 in 10.0 mi WNW 8.1 mph 18.4 mph N/A   Clear
4:36 PM 39.2 °F 33.6 °F 17.6 °F 42% 30.23 in 10.0 mi West 8.1 mph - N/A   Clear
4:56 PM 41.0 °F 34.7 °F 17.6 °F 39% 30.23 in 10.0 mi WNW 10.4 mph - N/A   Clear
5:16 PM 41.0 °F 37.1 °F 17.6 °F 39% 30.23 in 10.0 mi NW 5.8 mph - N/A   Clear
5:36 PM 39.2 °F 35.0 °F 15.8 °F 39% 30.23 in 10.0 mi North 5.8 mph - N/A   Clear
5:56 PM 39.2 °F 35.0 °F 17.6 °F 42% 30.23 in 10.0 mi NNW 5.8 mph - N/A   Clear
6:16 PM 39.2 °F 35.0 °F 15.8 °F 39% 30.23 in 10.0 mi NW 5.8 mph - N/A   Clear
6:36 PM 39.2 °F 35.0 °F 15.8 °F 39% 30.23 in 10.0 mi NNW 5.8 mph - N/A   Clear
6:56 PM 39.2 °F - 14.0 °F 36% 30.23 in 10.0 mi Calm Calm - N/A   Clear
7:16 PM 39.2 °F - 12.2 °F 33% 30.23 in 10.0 mi Calm Calm - N/A   Clear
7:36 PM 37.4 °F - 12.2 °F 36% 30.24 in 10.0 mi Calm Calm - N/A   Clear
7:56 PM 37.4 °F - 12.2 °F 36% 30.24 in 10.0 mi Calm Calm - N/A   Clear
8:16 PM 37.4 °F 34.9 °F 12.2 °F 36% 30.24 in 10.0 mi NNW 3.5 mph - N/A   Clear
8:36 PM 37.4 °F - 12.2 °F 36% 30.25 in 10.0 mi Calm Calm - N/A   Clear
8:56 PM 37.4 °F - 12.2 °F 36% 30.24 in 10.0 mi Calm Calm - N/A   Clear
9:16 PM 35.6 °F - 12.2 °F 38% 30.25 in 10.0 mi Calm Calm - N/A   Clear
9:36 PM 35.6 °F - 12.2 °F 38% 30.25 in 10.0 mi Calm Calm - N/A   Clear
9:56 PM 33.8 °F - 15.8 °F 48% 30.25 in 10.0 mi Calm Calm - N/A   Clear
10:16 PM 30.2 °F - 15.8 °F 55% 30.25 in 10.0 mi Calm Calm - N/A   Clear
10:36 PM 32.0 °F - 15.8 °F 51% 30.25 in 10.0 mi Calm Calm - N/A   Clear
10:56 PM 32.0 °F - 15.8 °F 51% 30.25 in 10.0 mi Calm Calm - N/A   Partly Cloudy
11:16 PM 30.2 °F - 17.6 °F 60% 30.26 in 10.0 mi Calm Calm - N/A   Mostly Cloudy
11:36 PM 30.2 °F - 17.6 °F 60% 30.25 in 10.0 mi Calm Calm - N/A   Overcast
11:56 PM 30.2 °F - 17.6 °F 60% 30.25 in 10.0 mi Calm Calm - N/A   Overcast